Location: Unspecified
(0.0000°N, 0.0000°E)
Time: 02:36:40
(UTC+00:00)

CZ-3C DEB - Pass Details

Date: 22 February 2026
Orbit: 610 x 36841 km, 20.5° (Epoch: 4 October)

Event Time Altitude Azimuth Distance (km) Brightness Sun altitude
Rises 20:47:40 0° 264° (W) 20,721 ? -37.9°
Reaches altitude 10° 21:30:24 10° 248° (WSW) 9,145 ? -48.3°
Maximum altitude 21:46:40 22° 202° (SSW) 3,343 ? -52.2°
Enters shadow 21:47:19 22° 196° (SSW) 3,170 ? -52.3°
